History for GMMN

Nouasseur, Mauritius

Daily Weekly Monthly
Daily Summary for Saturday, March 23, 2019
  Actual: Average: Record:
Temperature
Mean Temperature: 59 °F / 15 °C - :  
Max Temperature: 82 °F / 28 °C 70 °F / 21 °C 95 °F / 35 °C (2001)
Min Temperature: 36 °F / 2 °C 49 °F / 10 °C 37 °F / 2 °C (2018)
Degree Days
Heating Degree Days: 6    
Growing Degree Days 9 (Base 50)    
Moisture
Dew Point 42 °F / 6 °C    
Average Humidity 54    
Maximum Humidity 94    
Minimum Humidity 8    
Precipitation
Precipitation 0.00 in / 0.0 cm - - ()
Sea Level Pressure
Sea Level Pressure 29.94 in / 1013.78 hPa   
Wind
Wind Speed 6 mph / 10 km/h ()  
Max Wind Speed 24 mph / 39 km/h   
Max Gust Speed 40 mph / 65 km/h   
Visibility 6.1 miles / 10.0 kilometers   
Events Rain   
Averages and records for this station are not official NWS values.
Key: T is trace of precipitation, MM is missing value
Source: Averaged Metar Reports
Seasonal Weather Averages

Graphs

Observations

History Graphs Observations

Obs Go Here...

Features

Weather Apps

WunderRadio

Weather Underground Apps
Check out our wide variety of mobile and setup applications.

Weather Underground Applications

Top of Page

© Copyright 2019
The Weather Company, LLC
Time(+01)TemperatureDew PointHumidity Sea Level Pressure Visibility Wind DirectionWind SpeedGust SpeedPrecipitationEvents Conditions
12:00 AM 53.6 °F / 12.0 °C 48.2 °F / 9.0 °C 82% 29.98 in / 1015 hPa - SSE 6.9 mph / 11.1 km/h - N/A   Clear
12:30 AM 51.8 °F / 11.0 °C 46.4 °F / 8.0 °C 82% 29.98 in / 1015 hPa - SSE 5.8 mph / 9.3 km/h - N/A   Clear
1:00 AM 51 °F / 10 °C 47 °F / 8 °C 81% 29.99 in / 1016 hPa 6 miles / 10 kilometers South 6.9 mph / 11.1 km/h - -  
1:00 AM 51.8 °F / 11.0 °C 46.4 °F / 8.0 °C 82% 29.98 in / 1015 hPa - South 6.9 mph / 11.1 km/h - N/A   Clear
1:30 AM 50.0 °F / 10.0 °C 46.4 °F / 8.0 °C 87% 29.98 in / 1015 hPa - South 3.5 mph / 5.6 km/h - N/A   Clear
2:00 AM 50.0 °F / 10.0 °C 48.2 °F / 9.0 °C 94% 29.98 in / 1015 hPa - North 3.5 mph / 5.6 km/h - N/A   Clear
2:30 AM 48.2 °F / 9.0 °C 46.4 °F / 8.0 °C 93% 29.98 in / 1015 hPa - Variable 2.3 mph / 3.7 km/h - N/A   Clear
3:00 AM 48.2 °F / 9.0 °C 46.4 °F / 8.0 °C 93% 29.98 in / 1015 hPa - ESE 3.5 mph / 5.6 km/h - N/A   Clear
4:00 AM 47 °F / 9 °C 45 °F / 7 °C 89% 29.98 in / 1015 hPa 6 miles / 10 kilometers SE 2.3 mph / 3.7 km/h - -   Scattered Clouds
4:00 AM 48.2 °F / 9.0 °C 44.6 °F / 7.0 °C 87% 29.95 in / 1014 hPa - SE 2.3 mph / 3.7 km/h - N/A   Clear
4:30 AM 46.4 °F / 8.0 °C 42.8 °F / 6.0 °C 87% 29.95 in / 1014 hPa - South 2.3 mph / 3.7 km/h - N/A   Clear
5:00 AM 44.6 °F / 7.0 °C 42.8 °F / 6.0 °C 93% 29.95 in / 1014 hPa - South 4.6 mph / 7.4 km/h - N/A   Clear
5:30 AM 44.6 °F / 7.0 °C 42.8 °F / 6.0 °C 93% 29.95 in / 1014 hPa - SSW 2.3 mph / 3.7 km/h - N/A   Clear
6:00 AM 44.6 °F / 7.0 °C 42.8 °F / 6.0 °C 93% 29.95 in / 1014 hPa - SSE 5.8 mph / 9.3 km/h - N/A   Clear
6:30 AM 46.4 °F / 8.0 °C 44.6 °F / 7.0 °C 93% 29.95 in / 1014 hPa - South 5.8 mph / 9.3 km/h - N/A   Clear
7:00 AM 46 °F / 8 °C 43 °F / 6 °C 87% 29.97 in / 1015 hPa 6 miles / 10 kilometers SSE 5.8 mph / 9.3 km/h - -  
7:30 AM 46.4 °F / 8.0 °C 44.6 °F / 7.0 °C 93% 29.95 in / 1014 hPa - SE 4.6 mph / 7.4 km/h - N/A   Clear
8:00 AM 46.4 °F / 8.0 °C 42.8 °F / 6.0 °C 87% 29.95 in / 1014 hPa - SE 5.8 mph / 9.3 km/h - N/A   Clear
8:30 AM 48.2 °F / 9.0 °C 44.6 °F / 7.0 °C 87% 29.95 in / 1014 hPa - East 5.8 mph / 9.3 km/h - N/A   Clear
10:00 AM 66 °F / 19 °C 41 °F / 5 °C 28% 29.95 in / 1014 hPa 6 miles / 10 kilometers East 2.3 mph / 3.7 km/h - -   Scattered Clouds
10:00 AM 66.2 °F / 19.0 °C 41.0 °F / 5.0 °C 40% 29.95 in / 1014 hPa 6.2 miles / 10.0 kilometers Variable 2.3 mph / 3.7 km/h - N/A   Scattered Clouds
11:30 AM 77.0 °F / 25.0 °C 35.6 °F / 2.0 °C 22% 29.95 in / 1014 hPa - Variable 2.3 mph / 3.7 km/h - N/A   Clear
12:00 PM 78.8 °F / 26.0 °C 37.4 °F / 3.0 °C 23% 29.95 in / 1014 hPa - South 3.5 mph / 5.6 km/h - N/A   Clear
12:30 PM 80.6 °F / 27.0 °C 32.0 °F / 0.0 °C 17% 29.92 in / 1013 hPa - Variable 3.5 mph / 5.6 km/h - N/A   Clear
1:00 PM 82 °F / 28 °C 31 °F / -0 °C 8% 29.90 in / 1012 hPa 6 miles / 10 kilometers South 10.4 mph / 16.7 km/h - -  
1:00 PM 82.4 °F / 28.0 °C 32.0 °F / 0.0 °C 16% 29.92 in / 1013 hPa - South 10.4 mph / 16.7 km/h - N/A   Clear
2:30 PM 80.6 °F / 27.0 °C 44.6 °F / 7.0 °C 28% 29.89 in / 1012 hPa - NNW 18.4 mph / 29.6 km/h - N/A   Clear
3:00 PM 78.8 °F / 26.0 °C 41.0 °F / 5.0 °C 26% 29.89 in / 1012 hPa - North - - N/A   Clear
4:00 PM 74 °F / 23 °C 39 °F / 4 °C 18% 29.87 in / 1011 hPa 6 miles / 10 kilometers NNE 11.5 mph / 18.5 km/h - -   Clear
4:00 PM 73.4 °F / 23.0 °C 39.2 °F / 4.0 °C 29% 29.89 in / 1012 hPa - NNE 11.5 mph / 18.5 km/h - N/A   Clear
4:30 PM 73.4 °F / 23.0 °C 39.2 °F / 4.0 °C 29% 29.89 in / 1012 hPa - North 10.4 mph / 16.7 km/h - N/A   Clear
5:00 PM 71.6 °F / 22.0 °C 39.2 °F / 4.0 °C 31% 29.89 in / 1012 hPa - NNW 10.4 mph / 16.7 km/h - N/A   Clear
5:30 PM 71.6 °F / 22.0 °C 37.4 °F / 3.0 °C 29% 29.89 in / 1012 hPa - North 13.8 mph / 22.2 km/h - N/A   Clear
6:00 PM 71.6 °F / 22.0 °C 37.4 °F / 3.0 °C 29% 29.89 in / 1012 hPa - SE 5.8 mph / 9.3 km/h - N/A   Clear
6:09 PM 73.4 °F / 23.0 °C 39.2 °F / 4.0 °C 29% 29.92 in / 1013 hPa 6.2 miles / 10.0 kilometers Variable 9.2 mph / 14.8 km/h 24.2 mph / 38.9 km/h N/A Rain Rain
6:30 PM 71.6 °F / 22.0 °C 41.0 °F / 5.0 °C 33% 29.95 in / 1014 hPa 6.2 miles / 10.0 kilometers SW 13.8 mph / 22.2 km/h 27.6 mph / 44.4 km/h N/A   Mostly Cloudy
6:48 PM 69.8 °F / 21.0 °C 46.4 °F / 8.0 °C 43% 29.95 in / 1014 hPa 6.2 miles / 10.0 kilometers SW 21.9 mph / 35.2 km/h 40.3 mph / 64.8 km/h N/A   Mostly Cloudy
6:50 PM 69.8 °F / 21.0 °C 46.4 °F / 8.0 °C 43% 29.95 in / 1014 hPa 6.2 miles / 10.0 kilometers SW 24.2 mph / 38.9 km/h 40.3 mph / 64.8 km/h N/A   Mostly Cloudy
7:00 PM 70 °F / 21 °C 43 °F / 6 °C 26% 29.94 in / 1014 hPa 6 miles / 10 kilometers SW 17.3 mph / 27.8 km/h - -   Mostly Cloudy
7:00 PM 69.8 °F / 21.0 °C 42.8 °F / 6.0 °C 38% 29.95 in / 1014 hPa 6.2 miles / 10.0 kilometers SW 18.4 mph / 29.6 km/h 29.9 mph / 48.2 km/h N/A   Mostly Cloudy
7:30 PM 69.8 °F / 21.0 °C 42.8 °F / 6.0 °C 38% 29.95 in / 1014 hPa 6.2 miles / 10.0 kilometers SW 18.4 mph / 29.6 km/h 29.9 mph / 48.2 km/h N/A   Mostly Cloudy
8:00 PM 68.0 °F / 20.0 °C 44.6 °F / 7.0 °C 43% 29.95 in / 1014 hPa 6.2 miles / 10.0 kilometers ESE 6.9 mph / 11.1 km/h - N/A   Mostly Cloudy
8:30 PM 66.2 °F / 19.0 °C 44.6 °F / 7.0 °C 46% 29.95 in / 1014 hPa 6.2 miles / 10.0 kilometers SSE 8.1 mph / 13.0 km/h - N/A   Mostly Cloudy
9:00 PM 66.2 °F / 19.0 °C 44.6 °F / 7.0 °C 46% 29.95 in / 1014 hPa 6.2 miles / 10.0 kilometers ENE 5.8 mph / 9.3 km/h - N/A   Mostly Cloudy
9:30 PM 66.2 °F / 19.0 °C 44.6 °F / 7.0 °C 46% 29.95 in / 1014 hPa 6.2 miles / 10.0 kilometers East 6.9 mph / 11.1 km/h - N/A   Mostly Cloudy
10:00 PM 67 °F / 20 °C 41 °F / 5 °C 28% 29.95 in / 1014 hPa 6 miles / 10 kilometers East 3.5 mph / 5.6 km/h - -   Partly Cloudy
10:00 PM 68.0 °F / 20.0 °C 42.8 °F / 6.0 °C 40% 29.95 in / 1014 hPa - East 6.9 mph / 11.1 km/h - N/A   Clear
10:30 PM 68.0 °F / 20.0 °C 41.0 °F / 5.0 °C 37% 29.95 in / 1014 hPa 6.2 miles / 10.0 kilometers East 9.2 mph / 14.8 km/h - N/A   Scattered Clouds
11:00 PM 66.2 °F / 19.0 °C 42.8 °F / 6.0 °C 43% 29.95 in / 1014 hPa 6.2 miles / 10.0 kilometers ESE 8.1 mph / 13.0 km/h - N/A   Scattered Clouds
11:30 PM 64.4 °F / 18.0 °C 42.8 °F / 6.0 °C 45% 29.95 in / 1014 hPa 6.2 miles / 10.0 kilometers ESE 6.9 mph / 11.1 km/h - N/A   Scattered Clouds